QPF
0.02 0.03 0.04 0.04 0.05 0.07 0.08 0.11 0.12 0.07 0.02 0.00 0.00 0.00 0.00 0.00 0.00 0.00 0.00 0.00 0.00 0.00 0.00 0.01 0.01 0.01 0.01 0.02 0.04 0.12 0.25 0.36 0.33 0.25 0.24 0.29 0.31 0.31
0.01 0.01 0.02 0.03 0.04 0.05 0.06 0.07 0.09 0.09 0.05 0.01 0.00 0.00 0.00 0.00 0.00 0.00 0.00 0.00 0.00 0.00 0.00 0.01 0.01 0.01 0.01 0.01 0.02 0.06 0.16 0.31 0.39 0.34 0.26 0.27 0.32 0.31
0.00 0.00 0.01 0.01 0.02 0.02 0.04 0.05 0.05 0.06 0.05 0.01 0.00 0.00 0.00 0.00 0.00 0.00 0.00 0.00 0.00 0.00 0.00 0.01 0.01 0.01 0.01 0.01 0.02 0.03 0.08 0.21 0.37 0.42 0.36 0.31 0.31 0.28
0.00 0.00 0.00 0.00 0.01 0.02 0.02 0.03 0.03 0.03 0.04 0.02 0.01 0.00 0.00 0.00 0.00 0.00 0.00 0.00 0.00 0.00 0.00 0.01 0.01 0.01 0.01 0.01 0.02 0.03 0.05 0.13 0.30 0.47 0.46 0.37 0.31 0.30
0.00 0.00 0.00 0.00 0.01 0.02 0.02 0.02 0.02 0.01 0.02 0.02 0.01 0.01 0.01 0.01 0.01 0.00 0.00 0.00 0.00 0.00 0.00 0.01 0.01 0.01 0.01 0.02 0.02 0.02 0.03 0.07 0.19 0.38 0.56 0.56 0.43 0.33
0.00 0.00 0.00 0.00 0.01 0.02 0.03 0.03 0.02 0.01 0.01 0.01 0.01 0.01 0.01 0.01 0.01 0.01 0.01 0.00 0.01 0.00 0.01 0.01 0.02 0.02 0.02 0.02 0.02 0.02 0.03 0.04 0.11 0.24 0.45 0.64 0.64 0.48
0.01 0.00 0.00 0.01 0.02 0.04 0.04 0.04 0.03 0.02 0.02 0.02 0.01 0.01 0.01 0.01 0.01 0.01 0.01 0.01 0.01 0.01 0.01 0.01 0.02 0.03 0.02 0.03 0.03 0.03 0.04 0.04 0.06 0.14 0.29 0.49 0.65 0.63
0.02 0.01 0.00 0.00 0.01 0.02 0.03 0.03 0.03 0.03 0.04 0.03 0.02 0.02 0.01 0.02 0.02 0.02 0.02 0.02 0.02 0.02 0.02 0.02 0.04 0.04 0.04 0.03 0.04 0.04 0.04 0.04 0.05 0.08 0.17 0.31 0.48 0.61
0.02 0.01 0.01 0.00 0.01 0.02 0.03 0.02 0.01 0.02 0.03 0.05 0.03 0.02 0.02 0.02 0.03 0.02 0.02 0.02 0.02 0.02 0.02 0.03 0.05 0.06 0.06 0.05 0.05 0.05 0.05 0.05 0.06 0.08 0.09 0.16 0.29 0.43
0.02 0.01 0.00 0.00 0.01 0.04 0.03 0.01 0.00 0.01 0.02 0.03 0.04 0.03 0.03 0.03 0.04 0.03 0.02 0.01 0.01 0.02 0.04 0.04 0.07 0.08 0.09 0.08 0.07 0.07 0.08 0.07 0.07 0.07 0.08 0.10 0.17 0.29
0.01 0.01 0.01 0.01 0.02 0.04 0.02 0.01 0.00 0.01 0.01 0.02 0.03 0.03 0.03 0.03 0.04 0.04 0.02 0.02 0.03 0.06 0.08 0.06 0.08 0.11 0.12 0.12 0.10 0.09 0.10 0.09 0.07 0.07 0.08 0.09 0.10 0.19
0.01 0.00 0.01 0.01 0.03 0.03 0.02 0.01 0.02 0.02 0.01 0.01 0.01 0.01 0.01 0.01 0.02 0.03 0.03 0.03 0.05 0.10 0.12 0.08 0.10 0.14 0.16 0.16 0.15 0.10 0.10 0.10 0.09 0.08 0.08 0.09 0.11 0.14
0.01 0.00 0.00 0.02 0.02 0.01 0.01 0.02 0.04 0.03 0.01 0.01 0.02 0.01 0.01 0.01 0.01 0.01 0.02 0.04 0.06 0.10 0.13 0.10 0.13 0.15 0.17 0.18 0.18 0.16 0.12 0.09 0.08 0.08 0.09 0.10 0.12 0.12
0.01 0.01 0.01 0.01 0.01 0.00 0.01 0.02 0.02 0.01 0.02 0.02 0.02 0.02 0.02 0.01 0.01 0.01 0.02 0.03 0.05 0.09 0.13 0.13 0.16 0.17 0.16 0.17 0.18 0.20 0.18 0.14 0.09 0.07 0.06 0.10 0.15 0.17
0.01 0.01 0.00 0.00 0.00 0.00 0.01 0.01 0.01 0.01 0.02 0.03 0.03 0.03 0.03 0.02 0.02 0.02 0.02 0.03 0.05 0.08 0.11 0.12 0.16 0.18 0.16 0.16 0.18 0.21 0.24 0.20 0.13 0.10 0.08 0.09 0.13 0.19
0.00 0.00 0.00 0.00 0.00 0.00 0.00 0.00 0.00 0.01 0.02 0.03 0.03 0.03 0.02 0.02 0.03 0.03 0.03 0.04 0.05 0.07 0.09 0.11 0.15 0.18 0.16 0.16 0.18 0.21 0.24 0.23 0.18 0.12 0.10 0.10 0.12 0.15
0.00 0.00 0.00 0.00 0.00 0.00 0.00 0.00 0.00 0.00 0.01 0.02 0.03 0.03 0.03 0.03 0.03 0.03 0.04 0.04 0.06 0.08 0.07 0.09 0.13 0.17 0.18 0.18 0.20 0.23 0.25 0.22 0.19 0.14 0.12 0.13 0.18 0.18
0.00 0.00 0.00 0.00 0.00 0.00 0.00 0.00 0.00 0.00 0.01 0.02 0.02 0.03 0.03 0.03 0.03 0.03 0.04 0.05 0.06 0.07 0.07 0.09 0.11 0.16 0.18 0.20 0.25 0.26 0.29 0.26 0.23 0.17 0.13 0.13 0.21 0.24
0.00 0.00 0.00 0.01 0.01 0.01 0.00 0.00 0.00 0.00 0.01 0.01 0.02 0.02 0.02 0.03 0.03 0.03 0.04 0.04 0.05 0.05 0.06 0.07 0.10 0.15 0.18 0.19 0.24 0.30 0.33 0.31 0.28 0.23 0.19 0.14 0.17 0.25
0.00 0.00 0.01 0.01 0.01 0.01 0.01 0.01 0.00 0.00 0.00 0.01 0.01 0.01 0.02 0.02 0.02 0.03 0.04 0.05 0.05 0.05 0.05 0.06 0.09 0.13 0.18 0.19 0.20 0.27 0.42 0.38 0.30 0.26 0.23 0.19 0.19 0.30
0.00 0.00 0.00 0.01 0.01 0.01 0.01 0.01 0.00 0.00 0.00 0.00 0.00 0.01 0.01 0.02 0.02 0.03 0.03 0.04 0.04 0.05 0.05 0.07 0.09 0.13 0.17 0.17 0.16 0.21 0.34 0.48 0.37 0.26 0.20 0.17 0.17 0.22
0.00 0.00 0.00 0.01 0.01 0.01 0.01 0.01 0.00 0.00 0.00 0.00 0.00 0.00 0.01 0.01 0.02 0.02 0.03 0.03 0.04 0.05 0.05 0.06 0.07 0.10 0.14 0.17 0.17 0.18 0.25 0.37 0.44 0.37 0.25 0.15 0.10 0.12
0.00 0.01 0.01 0.01 0.01 0.01 0.01 0.01 0.01 0.00 0.00 0.00 0.00 0.00 0.00 0.01 0.01 0.01 0.02 0.03 0.03 0.04 0.04 0.06 0.07 0.09 0.15 0.18 0.18 0.18 0.20 0.26 0.32 0.35 0.36 0.29 0.16 0.09
MSLP
1022.65 1022.01 1021.32 1020.56 1019.74 1018.85 1017.89 1016.87 1015.82 1014.77 1013.73 1012.75 1011.84 1011.01 1010.26 1009.60 1009.00 1008.47 1007.97 1007.52 1007.09 1006.69 1006.32 1005.98 1005.65 1005.35 1005.06 1004.79 1004.53 1004.31 1004.14 1004.07 1004.12 1004.34 1004.73 1005.33 1006.11 1007.04
1022.31 1021.68 1021.01 1020.27 1019.48 1018.61 1017.69 1016.71 1015.71 1014.70 1013.71 1012.76 1011.87 1011.04 1010.27 1009.56 1008.89 1008.27 1007.67 1007.10 1006.57 1006.08 1005.63 1005.23 1004.88 1004.58 1004.30 1004.06 1003.84 1003.65 1003.52 1003.47 1003.52 1003.72 1004.08 1004.63 1005.36 1006.24
1021.83 1021.22 1020.56 1019.85 1019.10 1018.28 1017.41 1016.51 1015.57 1014.64 1013.71 1012.82 1011.96 1011.14 1010.36 1009.61 1008.88 1008.15 1007.44 1006.75 1006.09 1005.48 1004.92 1004.44 1004.03 1003.69 1003.41 1003.18 1003.00 1002.87 1002.80 1002.80 1002.89 1003.12 1003.49 1004.02 1004.72 1005.55
1021.20 1020.60 1019.97 1019.30 1018.60 1017.85 1017.06 1016.24 1015.40 1014.54 1013.70 1012.88 1012.07 1011.28 1010.50 1009.72 1008.93 1008.12 1007.30 1006.49 1005.69 1004.94 1004.26 1003.66 1003.15 1002.75 1002.44 1002.21 1002.07 1002.00 1002.00 1002.08 1002.25 1002.54 1002.95 1003.50 1004.18 1004.99
1020.40 1019.83 1019.24 1018.64 1018.00 1017.33 1016.63 1015.90 1015.15 1014.40 1013.64 1012.89 1012.15 1011.40 1010.64 1009.85 1009.03 1008.16 1007.25 1006.33 1005.41 1004.52 1003.69 1002.96 1002.34 1001.85 1001.48 1001.24 1001.11 1001.08 1001.16 1001.34 1001.61 1001.98 1002.47 1003.06 1003.75 1004.53
1019.49 1018.96 1018.43 1017.89 1017.33 1016.74 1016.13 1015.50 1014.84 1014.17 1013.50 1012.83 1012.15 1011.46 1010.73 1009.96 1009.13 1008.24 1007.28 1006.28 1005.26 1004.25 1003.29 1002.42 1001.67 1001.06 1000.61 1000.32 1000.19 1000.19 1000.34 1000.60 1000.97 1001.45 1002.02 1002.67 1003.39 1004.16
1018.53 1018.04 1017.57 1017.10 1016.62 1016.12 1015.59 1015.03 1014.45 1013.86 1013.27 1012.66 1012.05 1011.42 1010.75 1010.02 1009.22 1008.34 1007.38 1006.34 1005.25 1004.15 1003.08 1002.08 1001.20 1000.47 999.91 999.54 999.37 999.38 999.56 999.90 1000.36 1000.93 1001.58 1002.29 1003.04 1003.81
1017.59 1017.14 1016.73 1016.32 1015.91 1015.48 1015.02 1014.52 1014.01 1013.47 1012.93 1012.38 1011.83 1011.26 1010.66 1010.00 1009.26 1008.43 1007.50 1006.47 1005.36 1004.20 1003.05 1001.94 1000.93 1000.08 999.40 998.93 998.69 998.68 998.87 999.24 999.76 1000.40 1001.12 1001.89 1002.67 1003.44
1016.73 1016.33 1015.97 1015.62 1015.26 1014.88 1014.46 1014.01 1013.52 1013.02 1012.51 1012.01 1011.50 1010.99 1010.46 1009.88 1009.22 1008.47 1007.60 1006.62 1005.53 1004.36 1003.15 1001.97 1000.86 999.88 999.08 998.50 998.18 998.10 998.26 998.64 999.19 999.88 1000.64 1001.45 1002.25 1003.03
1016.04 1015.66 1015.33 1015.02 1014.70 1014.34 1013.95 1013.51 1013.04 1012.55 1012.05 1011.56 1011.09 1010.63 1010.16 1009.65 1009.08 1008.42 1007.64 1006.73 1005.68 1004.53 1003.32 1002.08 1000.89 999.82 998.91 998.23 997.80 997.64 997.75 998.10 998.65 999.35 1000.14 1000.97 1001.80 1002.58
1015.53 1015.17 1014.85 1014.56 1014.25 1013.91 1013.51 1013.07 1012.59 1012.09 1011.59 1011.10 1010.64 1010.20 1009.77 1009.33 1008.84 1008.25 1007.56 1006.73 1005.75 1004.64 1003.44 1002.19 1000.96 999.82 998.83 998.05 997.53 997.29 997.33 997.63 998.14 998.83 999.63 1000.47 1001.31 1002.11
1015.21 1014.85 1014.54 1014.24 1013.93 1013.58 1013.18 1012.72 1012.22 1011.70 1011.17 1010.66 1010.19 1009.75 1009.34 1008.92 1008.47 1007.95 1007.32 1006.56 1005.65 1004.60 1003.44 1002.22 1000.99 999.82 998.78 997.94 997.35 997.03 997.00 997.23 997.70 998.35 999.13 999.97 1000.83 1001.66
1015.06 1014.70 1014.38 1014.07 1013.75 1013.38 1012.96 1012.48 1011.95 1011.39 1010.84 1010.29 1009.79 1009.32 1008.89 1008.47 1008.02 1007.52 1006.93 1006.22 1005.37 1004.38 1003.28 1002.11 1000.92 999.76 998.72 997.86 997.22 996.85 996.75 996.92 997.33 997.93 998.68 999.52 1000.39 1001.25
1015.05 1014.68 1014.34 1014.02 1013.68 1013.29 1012.85 1012.35 1011.80 1011.21 1010.62 1010.03 1009.48 1008.96 1008.47 1008.01 1007.53 1007.01 1006.43 1005.74 1004.93 1004.01 1002.98 1001.88 1000.75 999.66 998.66 997.81 997.16 996.76 996.61 996.72 997.06 997.61 998.31 999.13 1000.00 1000.90
1015.14 1014.76 1014.41 1014.08 1013.72 1013.32 1012.86 1012.34 1011.77 1011.16 1010.53 1009.90 1009.29 1008.71 1008.15 1007.60 1007.06 1006.49 1005.88 1005.18 1004.40 1003.53 1002.58 1001.57 1000.55 999.54 998.61 997.81 997.19 996.77 996.59 996.64 996.92 997.39 998.04 998.82 999.70 1000.62
1015.29 1014.91 1014.55 1014.20 1013.83 1013.42 1012.96 1012.44 1011.86 1011.24 1010.59 1009.93 1009.26 1008.60 1007.96 1007.33 1006.70 1006.05 1005.38 1004.67 1003.90 1003.07 1002.20 1001.29 1000.37 999.48 998.65 997.92 997.34 996.93 996.72 996.71 996.92 997.32 997.90 998.64 999.49 1000.43
1015.47 1015.09 1014.73 1014.37 1013.99 1013.58 1013.12 1012.62 1012.05 1011.44 1010.79 1010.11 1009.40 1008.68 1007.96 1007.23 1006.51 1005.78 1005.04 1004.29 1003.52 1002.74 1001.93 1001.12 1000.32 999.54 998.82 998.17 997.64 997.25 997.02 996.96 997.10 997.41 997.92 998.59 999.40 1000.35
1015.67 1015.29 1014.92 1014.55 1014.17 1013.77 1013.33 1012.85 1012.32 1011.74 1011.10 1010.42 1009.70 1008.94 1008.16 1007.36 1006.56 1005.75 1004.95 1004.16 1003.39 1002.62 1001.88 1001.16 1000.46 999.79 999.17 998.61 998.14 997.76 997.51 997.41 997.46 997.70 998.12 998.72 999.49 1000.42
1015.85 1015.48 1015.10 1014.72 1014.34 1013.95 1013.54 1013.09 1012.61 1012.08 1011.49 1010.84 1010.14 1009.37 1008.56 1007.72 1006.85 1005.99 1005.13 1004.31 1003.52 1002.78 1002.09 1001.44 1000.83 1000.26 999.73 999.24 998.81 998.45 998.19 998.04 998.03 998.19 998.52 999.06 999.79 1000.70
1016.01 1015.63 1015.25 1014.86 1014.48 1014.10 1013.72 1013.32 1012.90 1012.43 1011.91 1011.32 1010.66 1009.92 1009.11 1008.25 1007.36 1006.46 1005.58 1004.72 1003.93 1003.20 1002.54 1001.95 1001.40 1000.91 1000.45 1000.03 999.64 999.30 999.02 998.84 998.78 998.88 999.16 999.64 1000.33 1001.22
1016.14 1015.75 1015.35 1014.95 1014.56 1014.20 1013.84 1013.50 1013.14 1012.76 1012.32 1011.81 1011.21 1010.53 1009.76 1008.92 1008.03 1007.12 1006.22 1005.36 1004.56 1003.84 1003.20 1002.64 1002.15 1001.71 1001.31 1000.93 1000.58 1000.26 999.99 999.80 999.71 999.78 1000.02 1000.47 1001.14 1002.02
1016.21 1015.81 1015.39 1014.98 1014.59 1014.23 1013.91 1013.61 1013.32 1013.02 1012.67 1012.25 1011.75 1011.14 1010.43 1009.63 1008.77 1007.88 1006.98 1006.12 1005.32 1004.61 1003.99 1003.45 1002.99 1002.59 1002.23 1001.89 1001.58 1001.29 1001.04 1000.86 1000.78 1000.84 1001.07 1001.52 1002.18 1003.07
1016.24 1015.82 1015.38 1014.95 1014.56 1014.20 1013.91 1013.65 1013.43 1013.20 1012.94 1012.62 1012.21 1011.69 1011.06 1010.33 1009.52 1008.66 1007.79 1006.94 1006.15 1005.44 1004.83 1004.31 1003.87 1003.50 1003.17 1002.88 1002.61 1002.36 1002.15 1002.00 1001.94 1002.03 1002.28 1002.74 1003.42 1004.31
Thickness
5133 5130 5129 5131 5133 5135 5139 5143 5150 5162 5178 5193 5208 5226 5243 5263 5283 5301 5320 5340 5364 5391 5419 5447 5474 5501 5528 5553 5577 5599 5619 5637 5652 5663 5672 5678 5681 5684
5133 5130 5128 5129 5132 5135 5139 5144 5150 5157 5172 5187 5202 5219 5238 5257 5276 5294 5310 5330 5353 5379 5406 5434 5461 5488 5515 5541 5566 5589 5609 5628 5644 5657 5667 5674 5678 5681
5134 5130 5129 5129 5132 5136 5140 5146 5151 5158 5169 5185 5198 5215 5234 5252 5270 5286 5303 5321 5343 5367 5394 5422 5450 5477 5504 5530 5555 5578 5600 5619 5636 5650 5660 5668 5674 5677
5138 5133 5131 5132 5133 5137 5142 5147 5152 5159 5167 5180 5196 5213 5230 5248 5265 5280 5298 5316 5336 5360 5385 5413 5441 5468 5495 5520 5545 5568 5590 5610 5628 5644 5656 5664 5670 5672
5144 5138 5136 5135 5136 5140 5144 5150 5155 5162 5168 5178 5193 5209 5226 5243 5259 5276 5292 5308 5328 5352 5378 5405 5433 5460 5486 5512 5536 5559 5582 5604 5623 5638 5649 5657 5663 5668
5152 5146 5142 5140 5141 5144 5149 5153 5158 5163 5169 5178 5191 5206 5221 5237 5252 5268 5285 5301 5321 5343 5370 5397 5425 5453 5479 5505 5531 5554 5574 5592 5611 5628 5641 5650 5658 5663
5160 5154 5149 5148 5149 5151 5154 5157 5161 5165 5171 5180 5191 5203 5217 5230 5243 5258 5274 5292 5313 5336 5360 5387 5417 5447 5475 5499 5521 5543 5565 5585 5603 5619 5634 5644 5653 5658
5169 5163 5157 5155 5154 5156 5158 5162 5165 5167 5173 5181 5190 5199 5211 5223 5237 5251 5264 5280 5303 5327 5347 5376 5406 5437 5467 5494 5518 5539 5559 5578 5596 5612 5626 5638 5646 5652
5177 5170 5165 5162 5160 5159 5161 5164 5165 5170 5176 5182 5188 5196 5208 5220 5232 5247 5259 5273 5290 5311 5331 5367 5402 5434 5463 5490 5513 5533 5553 5571 5588 5605 5619 5630 5639 5646
5184 5177 5172 5168 5167 5168 5168 5167 5168 5172 5178 5183 5190 5199 5210 5221 5231 5244 5256 5271 5289 5310 5330 5361 5398 5431 5461 5486 5509 5529 5548 5565 5582 5597 5612 5623 5631 5639
5190 5184 5179 5176 5175 5176 5174 5172 5174 5178 5183 5188 5195 5203 5213 5222 5233 5243 5254 5267 5286 5312 5336 5362 5396 5427 5456 5482 5505 5524 5542 5559 5576 5591 5604 5615 5624 5630
5195 5189 5184 5183 5183 5183 5180 5178 5180 5184 5187 5191 5196 5204 5211 5220 5231 5240 5250 5262 5278 5303 5332 5355 5386 5417 5452 5478 5499 5518 5536 5553 5570 5584 5597 5607 5615 5623
5199 5193 5189 5190 5189 5188 5187 5184 5187 5190 5190 5193 5199 5206 5213 5221 5230 5241 5251 5263 5279 5299 5325 5345 5373 5404 5440 5472 5495 5514 5533 5550 5565 5578 5590 5600 5609 5620
5203 5198 5195 5196 5194 5192 5191 5192 5193 5193 5193 5197 5202 5208 5215 5224 5234 5245 5258 5271 5286 5304 5323 5341 5366 5396 5426 5464 5491 5510 5528 5547 5563 5576 5587 5594 5602 5611
5207 5204 5202 5199 5197 5194 5195 5196 5195 5195 5198 5201 5205 5211 5218 5228 5240 5253 5267 5282 5298 5315 5332 5349 5369 5393 5418 5451 5484 5506 5525 5543 5559 5573 5583 5592 5601 5608
5211 5206 5203 5200 5199 5198 5197 5197 5198 5199 5201 5204 5209 5215 5224 5234 5246 5258 5273 5290 5307 5325 5343 5360 5378 5396 5421 5449 5477 5501 5521 5540 5556 5570 5580 5587 5595 5604
5216 5209 5205 5202 5201 5201 5200 5201 5202 5204 5206 5209 5214 5221 5229 5239 5251 5263 5278 5294 5310 5327 5346 5365 5385 5404 5424 5447 5473 5497 5517 5535 5551 5565 5574 5581 5588 5597
5217 5210 5207 5204 5202 5202 5202 5203 5205 5207 5210 5213 5218 5224 5233 5243 5255 5267 5281 5295 5312 5328 5345 5364 5384 5406 5427 5448 5466 5489 5509 5526 5542 5557 5570 5575 5578 5587
5216 5211 5207 5205 5203 5203 5203 5204 5206 5209 5212 5216 5222 5228 5236 5246 5258 5269 5282 5297 5312 5328 5346 5363 5382 5403 5427 5445 5461 5477 5499 5517 5534 5546 5556 5566 5571 5579
5218 5213 5210 5207 5206 5205 5206 5207 5209 5212 5215 5219 5225 5231 5238 5248 5258 5270 5282 5295 5310 5326 5343 5360 5377 5394 5414 5432 5449 5468 5489 5509 5525 5535 5543 5551 5556 5563
5221 5216 5212 5210 5208 5207 5207 5209 5210 5213 5216 5220 5226 5232 5240 5248 5258 5269 5280 5294 5308 5323 5339 5355 5371 5390 5407 5426 5445 5459 5476 5495 5513 5527 5536 5546 5546 5546
5223 5219 5215 5212 5211 5209 5209 5210 5212 5214 5217 5221 5226 5232 5240 5247 5256 5267 5279 5291 5304 5318 5334 5351 5370 5387 5405 5422 5437 5450 5464 5480 5496 5510 5522 5537 5545 5543
5225 5221 5217 5215 5213 5212 5211 5211 5212 5214 5216 5219 5225 5231 5238 5246 5254 5264 5275 5288 5301 5315 5330 5347 5364 5381 5396 5411 5425 5439 5452 5466 5479 5491 5499 5514 5528 5532